{"data":{"norad_id":68194,"intl_designator":"2026-050AD","name":"STARLINK-37093","alt_names":[],"object_type":"PAYLOAD","status":"ACTIVE","operator":null,"country":"US","launch_date":"2026-03-14","launch_site_code":"AFETR","launch_vehicle":null,"mission":null,"orbit_class":"UNKNOWN","rcs_meters":null,"size_class":null,"mass_kg":null,"dimensions":null,"purposes":["comms"],"wikipedia_slug":null,"has_3d_model":false,"image_url":null,"decayed_at":null,"tle_current":{"epoch":"2026-09-20T03:33:03.209184Z","epoch_age_seconds":82645,"freshness":"FRESH","line1":"1 68194U 26050AD  26263.14795381  .00008269  00000+0  25560-3 0  9993","line2":"2 68194  53.1611  79.3832 0000638  88.1640 271.9436 15.34396124 30512","mean_motion":15.34396124,"eccentricity":6.38e-5,"inclination_deg":53.1611,"raan_deg":79.3832,"arg_perigee_deg":88.164,"mean_anomaly_deg":271.9436,"bstar":0.0002556,"rev_number":3051,"period_min":93.847995147829,"perigee_km":462.27831417787,"apogee_km":463.15120686251,"semimajor_km":6840.8517605202,"source":"CELESTRAK","updated_at":"2026-09-20T09:00:43.831624Z"}}}